Wind_Speed
47 49 55 54 53 55 57 58 58 61 65 66 64 61 63 63 58 62 64 64 64 66 69 66 67 68 71 74 75 74 75 77 76 78 78 75 70 65 64 56 49 45 42 44
50 52 57 56 56 59 60 61 63 66 71 67 66 60 62 66 63 63 65 67 68 68 69 70 71 71 73 78 79 77 76 77 79 82 79 77 71 68 66 56 50 46 43 45
53 58 62 62 61 62 63 64 69 70 74 70 70 62 63 66 67 68 70 74 73 71 71 72 74 75 77 79 79 77 78 80 81 85 81 75 73 73 67 58 51 47 45 48
54 59 59 61 64 70 67 73 73 73 75 72 78 66 64 65 66 74 78 79 78 78 79 80 80 80 79 79 78 79 81 81 85 87 80 78 77 73 62 55 47 46 47 50
58 63 67 70 73 77 74 81 81 82 83 84 77 83 59 67 69 76 82 82 82 84 85 85 82 81 80 82 82 82 83 86 89 85 81 78 73 63 54 45 42 46 47 51
67 69 68 70 74 78 80 84 87 89 90 90 80 91 70 73 73 78 85 88 87 87 84 83 84 86 86 84 84 85 90 92 87 83 75 70 62 54 47 42 45 48 49 52
68 71 75 80 83 87 91 95 97 96 97 92 93 98 75 75 79 82 82 88 87 87 86 85 86 87 87 89 89 91 88 85 80 70 70 63 55 49 43 44 46 49 51 53
66 64 69 74 78 81 81 86 92 99 99 96 97 88 76 82 85 86 88 92 90 91 90 89 90 91 93 94 91 83 82 75 66 68 65 55 47 43 43 45 48 50 53 55
74 70 74 78 84 89 89 89 93 102 98 103 92 85 82 81 83 88 92 96 98 99 97 96 95 93 91 85 77 71 71 73 65 65 63 49 44 43 45 47 52 53 54 57
79 81 81 85 90 93 99 99 103 107 109 110 99 95 82 81 84 89 90 90 92 93 92 90 89 86 83 77 73 73 73 71 62 60 58 47 45 45 47 52 55 55 56 58
89 91 82 90 92 96 103 107 111 117 119 118 112 93 86 86 85 88 91 92 94 96 95 93 91 88 82 76 74 74 74 70 61 58 57 52 48 50 52 54 57 56 58 61
99 103 99 95 100 105 109 116 121 126 122 126 123 106 99 97 96 94 93 92 94 99 97 95 91 89 86 81 76 73 71 68 60 59 57 55 54 55 55 56 58 58 60 62
105 108 113 106 110 114 119 123 124 126 128 126 123 112 107 103 103 103 97 95 96 97 99 95 92 89 85 80 75 71 69 69 63 63 61 58 58 57 57 59 59 61 63 64
118 118 124 124 121 121 121 122 125 129 125 121 117 109 88 96 104 102 101 102 101 102 99 98 94 93 89 83 81 82 77 75 70 69 65 64 62 60 60 60 61 64 65 67
116 118 117 117 116 114 117 118 119 124 123 126 113 122 103 99 96 97 103 104 106 103 100 99 96 92 91 87 83 85 83 81 77 75 71 68 66 65 65 65 66 67 68 70
112 118 120 119 118 121 120 115 114 117 122 127 122 113 114 103 95 102 106 103 105 104 102 100 97 94 91 89 87 86 85 83 80 78 76 71 67 67 69 69 68 68 69 70
100 101 113 114 112 121 118 106 105 108 113 120 119 115 110 105 94 102 106 106 104 103 101 101 97 93 92 90 86 83 82 78 74 71 71 71 73 73 71 70 69 70 70 71
108 103 100 104 105 105 98 97 103 104 108 115 113 117 114 108 98 97 103 107 104 100 101 100 99 94 93 90 86 87 84 80 74 73 74 76 75 74 73 73 72 72 72 72
110 103 90 83 85 86 71 83 84 86 93 104 111 112 110 107 100 103 99 103 103 102 100 101 99 97 93 89 88 86 82 74 70 70 70 72 72 74 75 75 74 73 71 74
104 96 87 76 75 70 68 75 74 76 77 90 100 108 104 102 101 103 107 99 104 105 100 103 102 99 94 91 92 88 84 78 73 72 69 70 74 77 75 76 74 71 72 73
89 85 80 75 71 65 69 66 67 68 68 74 84 90 95 93 93 100 106 99 99 104 104 101 103 102 96 93 92 87 82 76 73 70 70 69 70 72 74 72 70 71 73 77
83 81 74 67 63 62 62 59 60 60 60 63 67 73 79 80 80 88 102 101 101 100 103 103 103 100 97 96 90 85 81 75 72 70 71 68 69 70 71 72 71 74 77 78
80 79 69 61 53 53 52 51 51 50 52 56 56 62 65 67 69 73 89 99 98 96 99 107 104 101 97 94 90 82 80 75 72 73 69 68 68 69 72 72 73 74 75 77
78 68 65 55 54 43 49 51 42 43 43 46 49 54 59 61 59 60 76 85 90 94 100 96 97 93 93 93 90 84 79 78 76 72 69 68 69 71 70 70 71 73 72 73
71 63 57 54 48 43 43 43 43 39 35 35 39 44 53 55 55 57 67 74 78 85 88 87 87 85 82 83 85 82 78 76 74 72 71 70 70 71 69 69 71 71 71 75
64 61 54 46 41 36 39 37 36 34 37 34 34 37 44 52 54 56 60 67 75 77 74 73 74 71 64 63 61 70 70 70 70 71 71 72 73 68 67 69 70 70 72 74
Wind_Direction
250 253 256 257 260 262 260 260 261 261 262 262 264 264 269 270 272 273 276 279 280 280 283 287 289 293 295 296 298 299 302 305 303 305 308 309 307 307 310 304 297 285 288 294
253 257 260 261 262 262 263 262 263 263 263 263 266 268 269 274 273 274 278 276 276 280 282 287 290 292 291 293 294 298 301 301 301 305 306 307 304 305 306 302 294 284 287 292
256 259 262 262 264 265 266 267 264 266 269 270 267 265 270 274 280 280 279 278 279 281 284 284 285 286 288 289 293 296 297 298 300 302 304 303 302 303 303 299 288 282 286 291
253 260 260 263 264 263 264 266 265 266 267 269 271 265 272 275 279 280 279 279 281 283 283 283 284 286 288 290 294 293 296 296 298 301 301 299 299 299 299 294 281 280 285 291
259 260 263 264 262 265 264 264 265 264 263 263 266 267 263 268 272 273 274 276 277 279 280 282 284 285 287 289 290 292 292 295 298 299 297 295 293 295 297 286 279 282 286 292
261 262 262 264 267 267 266 266 266 266 265 264 265 265 258 262 259 264 269 273 274 274 277 280 282 284 285 286 287 290 293 294 294 296 293 290 291 293 288 281 282 284 289 293
263 263 265 266 265 268 268 268 268 268 268 269 267 266 267 266 267 265 268 268 268 272 274 277 279 281 282 283 286 290 290 290 292 291 289 289 290 288 281 281 284 286 289 294
262 262 268 267 266 264 265 268 272 270 268 265 264 267 267 266 268 264 261 265 268 270 271 272 273 276 277 280 283 285 287 288 289 288 286 286 286 282 278 283 287 288 290 295
272 267 264 267 269 269 267 267 266 267 267 267 265 267 267 269 267 266 268 266 266 267 267 269 271 272 274 277 281 281 282 285 287 287 283 282 282 279 278 284 287 288 292 295
269 270 272 273 273 273 272 271 272 272 270 268 267 265 268 267 267 268 268 268 267 267 266 267 268 270 271 273 275 276 278 280 283 285 284 280 281 281 283 285 286 290 292 297
276 273 268 269 270 270 273 273 272 271 272 273 274 271 272 266 262 261 264 266 265 266 266 266 268 269 271 272 272 274 276 279 280 284 286 283 282 282 283 283 287 290 293 297
280 282 281 275 274 274 274 274 275 274 273 272 272 272 267 265 262 262 260 263 265 264 264 265 268 269 271 270 270 273 275 276 277 280 283 282 281 281 282 285 288 290 293 297
281 283 285 284 281 280 280 279 277 276 273 272 273 272 266 266 264 262 263 263 262 262 264 265 266 268 267 268 269 269 271 275 279 279 279 280 280 281 283 286 289 291 294 297
283 282 281 281 279 278 276 274 274 273 275 275 274 272 263 260 258 258 260 261 260 261 261 262 261 262 264 265 266 268 271 274 277 278 281 281 283 284 286 287 290 292 295 298
287 284 280 277 277 273 273 271 267 268 272 272 269 266 263 254 255 254 251 253 256 257 258 257 258 260 261 261 262 264 268 270 274 277 280 281 283 285 286 287 290 292 296 297
285 284 282 280 278 275 272 271 272 266 264 264 265 265 262 259 251 251 251 249 252 253 255 257 256 257 259 259 260 263 266 267 270 275 277 279 280 282 284 287 289 293 295 296
290 285 281 282 279 277 278 272 265 263 262 262 262 262 261 258 254 246 248 248 247 250 253 254 254 255 258 261 262 263 264 267 269 271 273 275 278 281 283 286 290 291 294 297
297 293 288 286 282 277 276 271 265 260 255 257 258 258 256 255 253 246 241 245 246 246 249 251 254 253 255 256 259 263 266 265 267 269 272 275 278 280 282 284 288 290 293 296
304 303 295 288 282 280 280 271 268 262 259 254 253 255 256 253 250 249 241 240 244 245 245 249 250 251 251 254 256 259 262 265 266 267 270 274 277 279 281 283 285 288 293 293
308 302 300 294 287 283 279 272 268 263 257 254 253 252 252 251 246 245 245 237 240 243 245 247 248 248 250 252 254 256 260 262 264 264 267 272 274 276 279 281 284 287 289 293
307 301 299 298 296 290 281 276 270 265 261 257 255 256 256 250 246 242 243 242 236 240 243 244 246 247 248 248 251 253 257 260 261 264 265 268 273 276 278 281 284 286 289 292
308 303 302 301 296 291 288 285 280 274 268 261 258 256 256 254 248 239 241 241 239 235 237 240 243 245 246 248 248 251 252 254 258 262 263 266 270 274 276 279 283 285 288 292
311 308 306 301 298 294 288 281 280 274 270 266 259 256 254 252 248 240 237 237 239 239 235 235 238 244 248 250 251 251 252 254 258 260 263 265 269 273 275 278 281 284 289 291
309 308 304 303 297 298 289 283 274 271 268 267 261 257 255 252 247 238 236 234 236 239 241 241 242 240 242 246 250 251 252 254 256 259 261 262 265 268 272 276 279 282 286 291
309 306 303 303 303 301 295 286 281 273 265 259 256 255 253 250 245 239 232 232 231 235 241 244 244 244 242 243 244 247 249 253 255 255 256 259 262 265 269 274 277 281 286 289
311 306 308 307 303 301 291 283 277 271 264 250 250 252 251 245 241 236 230 226 226 231 234 240 245 244 243 241 240 239 241 243 246 249 254 256 259 264 269 273 276 281 283 286
Height
10879 10878 10868 10873 10877 10877 10874 10875 10874 10866 10863 10870 10875 10882 10873 10873 10883 10875 10872 10870 10867 10864 10857 10858 10857 10856 10849 10843 10840 10838 10834 10830 10822 10816 10814 10810 10804 10801 10796 10792 10789 10786 10784 10781
10868 10868 10861 10863 10865 10863 10863 10863 10861 10855 10846 10859 10860 10872 10868 10858 10866 10866 10861 10856 10854 10853 10849 10848 10845 10844 10838 10831 10825 10825 10822 10816 10808 10804 10802 10798 10792 10788 10785 10781 10778 10775 10773 10772
10862 10855 10850 10851 10852 10851 10850 10848 10842 10845 10836 10847 10848 10863 10857 10851 10848 10847 10845 10837 10839 10840 10839 10837 10833 10830 10827 10819 10815 10813 10809 10803 10797 10792 10790 10785 10781 10776 10772 10769 10766 10764 10762 10761
10848 10836 10838 10837 10839 10829 10838 10825 10827 10827 10823 10831 10822 10849 10850 10845 10842 10829 10819 10816 10820 10820 10818 10817 10815 10814 10812 10807 10805 10800 10796 10791 10784 10781 10777 10772 10768 10764 10760 10756 10754 10752 10752 10750
10832 10827 10825 10825 10818 10813 10822 10807 10807 10804 10803 10802 10817 10804 10851 10833 10829 10813 10801 10802 10802 10800 10798 10797 10797 10794 10795 10793 10789 10786 10782 10778 10772 10769 10763 10758 10753 10751 10748 10744 10743 10742 10741 10738
10820 10815 10814 10808 10802 10797 10796 10791 10785 10782 10782 10784 10803 10775 10824 10813 10812 10803 10790 10784 10783 10779 10781 10781 10779 10777 10776 10775 10773 10771 10767 10762 10758 10755 10748 10742 10740 10738 10736 10735 10734 10731 10729 10726
10802 10801 10796 10791 10789 10778 10771 10766 10764 10765 10761 10771 10766 10750 10798 10798 10788 10782 10777 10765 10766 10766 10765 10765 10761 10759 10757 10756 10757 10756 10752 10746 10743 10738 10732 10730 10728 10725 10724 10724 10722 10719 10716 10714
10789 10791 10776 10770 10764 10757 10755 10742 10740 10727 10734 10743 10740 10751 10779 10770 10764 10758 10752 10741 10745 10744 10745 10747 10744 10741 10739 10739 10740 10739 10735 10731 10728 10723 10719 10718 10715 10713 10712 10712 10709 10707 10703 10700
10769 10777 10766 10756 10744 10733 10732 10728 10713 10694 10712 10699 10728 10740 10746 10750 10744 10727 10721 10725 10727 10725 10721 10723 10723 10724 10719 10722 10724 10722 10718 10716 10715 10710 10707 10705 10702 10700 10700 10699 10696 10693 10690 10687
10740 10745 10742 10736 10726 10718 10704 10702 10690 10677 10671 10673 10703 10708 10730 10732 10718 10704 10700 10699 10697 10697 10698 10699 10699 10701 10703 10707 10707 10705 10703 10701 10702 10698 10696 10693 10689 10687 10687 10685 10683 10680 10677 10673
10710 10711 10732 10714 10708 10696 10678 10668 10660 10645 10642 10645 10657 10691 10708 10704 10689 10680 10676 10675 10673 10670 10672 10676 10678 10680 10685 10689 10688 10686 10685 10687 10687 10686 10684 10680 10677 10674 10674 10673 10670 10667 10664 10659
10679 10670 10681 10692 10682 10667 10657 10639 10628 10611 10621 10607 10611 10648 10670 10666 10655 10649 10657 10657 10653 10647 10650 10656 10658 10661 10665 10667 10669 10669 10669 10670 10674 10673 10671 10668 10666 10664 10664 10661 10658 10655 10651 10646
10655 10643 10624 10646 10643 10630 10617 10606 10598 10582 10569 10573 10572 10600 10624 10630 10629 10625 10636 10638 10632 10625 10625 10633 10639 10640 10644 10648 10650 10650 10652 10654 10658 10657 10657 10656 10654 10653 10651 10648 10646 10643 10638 10633
10610 10610 10586 10583 10589 10583 10580 10564 10550 10533 10531 10536 10537 10547 10588 10585 10587 10599 10605 10606 10602 10603 10609 10608 10613 10616 10622 10628 10630 10628 10632 10635 10639 10639 10640 10640 10640 10639 10636 10634 10632 10628 10624 10618
10571 10561 10538 10537 10535 10528 10523 10524 10517 10505 10501 10480 10511 10487 10530 10543 10551 10568 10569 10569 10571 10576 10579 10580 10587 10592 10596 10607 10611 10609 10614 10618 10622 10623 10625 10624 10623 10622 10621 10619 10617 10613 10609 10603
10530 10511 10488 10493 10488 10465 10464 10482 10482 10469 10459 10436 10446 10459 10466 10496 10522 10524 10527 10538 10540 10545 10555 10561 10567 10572 10576 10583 10589 10591 10595 10600 10605 10609 10608 10609 10609 10607 10606 10605 10601 10599 10594 10588
10491 10477 10449 10448 10438 10406 10417 10427 10425 10421 10413 10401 10403 10417 10433 10449 10482 10490 10491 10498 10510 10520 10527 10533 10544 10555 10559 10563 10569 10573 10574 10582 10589 10591 10592 10593 10592 10592 10591 10589 10587 10584 10580 10573
10430 10423 10417 10398 10381 10372 10376 10374 10362 10366 10369 10361 10373 10372 10388 10412 10435 10450 10458 10462 10479 10492 10500 10508 10516 10528 10534 10540 10547 10548 10554 10565 10572 10575 10576 10576 10576 10576 10574 10573 10573 10569 10564 10557
10383 10369 10366 10358 10339 10327 10343 10317 10322 10326 10335 10333 10336 10340 10349 10374 10401 10408 10426 10438 10450 10459 10474 10481 10489 10498 10509 10518 10522 10527 10534 10544 10550 10554 10556 10557 10558 10558 10558 10557 10556 10553 10548 10542
10346 10325 10316 10314 10303 10303 10301 10283 10287 10289 10299 10293 10296 10299 10317 10338 10365 10382 10383 10413 10423 10433 10447 10453 10461 10472 10487 10495 10498 10506 10514 10524 10530 10533 10538 10540 10539 10541 10542 10540 10540 10538 10532 10527
10321 10296 10285 10282 10276 10276 10261 10262 10260 10261 10270 10272 10272 10279 10289 10309 10331 10354 10354 10379 10399 10410 10421 10427 10434 10447 10460 10471 10476 10485 10495 10504 10509 10517 10520 10520 10522 10524 10524 10524 10523 10521 10517 10512
10292 10273 10269 10264 10254 10248 10240 10239 10240 10240 10247 10250 10254 10258 10264 10279 10299 10320 10328 10347 10360 10384 10397 10397 10401 10425 10436 10446 10457 10467 10476 10483 10491 10499 10500 10503 10504 10506 10507 10506 10506 10504 10502 10497
10264 10248 10249 10241 10235 10228 10218 10213 10215 10217 10223 10224 10233 10236 10242 10254 10268 10288 10301 10313 10334 10353 10368 10372 10384 10401 10418 10428 10439 10451 10458 10467 10474 10477 10483 10485 10487 10489 10489 10490 10490 10488 10486 10481
10238 10235 10225 10222 10210 10214 10202 10196 10197 10195 10200 10206 10211 10217 10221 10233 10246 10262 10275 10291 10311 10327 10336 10352 10365 10387 10401 10409 10419 10431 10442 10447 10454 10461 10465 10468 10470 10472 10473 10474 10473 10472 10470 10465
10223 10218 10213 10204 10199 10197 10189 10187 10184 10181 10184 10188 10193 10199 10204 10213 10226 10240 10250 10267 10285 10301 10317 10333 10348 10363 10376 10389 10400 10414 10423 10431 10439 10444 10447 10451 10453 10455 10458 10457 10458 10456 10454 10450
10209 10200 10196 10192 10186 10185 10173 10169 10170 10171 10167 10171 10175 10180 10188 10195 10207 10221 10236 10251 10267 10283 10301 10314 10325 10340 10357 10371 10382 10392 10403 10410 10418 10424 10429 10433 10435 10440 10442 10442 10441 10441 10439 10435